This demonstration page uses our WeatherBlox Daily Observations layout. Learn more.

Left ArrowRight Arrow

34.02893, -84.19858

Hourly Observations for November 20, 2019

Temp ( °F °C ) Dew Point ( °F °C ) Humidity (%) Winds ( mph kmh ) Pressure ( in mb ) Visibility ( mi km ) Precip ( " mm )
12:53 am 00:53 Clear 46 7.8 39 3.9 77 77 WSW 5 7 29.98 1015 10 16 0.00 0.00
1:53 am 01:53 Clear 43 6.1 38 3.3 82 82 W 6 9 30.01 1016 10 16 0.00 0.00
2:53 am 02:53 Clear 46 7.8 38 3.3 73 73 NW 8 13 30.03 1017 10 16 0.00 0.00
3:53 am 03:53 Clear 46 7.8 37 2.8 71 71 NW 12 19 30.05 1018 10 16 0.00 0.00
4:53 am 04:53 Clear 45 7.2 36 2.2 71 71 NW 9 15 30.08 1019 10 16 0.00 0.00
5:53 am 05:53 Clear 44 6.7 36 2.2 73 73 NW 6 9 30.10 1019 10 16 0.00 0.00
6:53 am 06:53 Clear 42 5.6 36 2.2 79 79 NW 6 9 30.13 1020 10 16 0.00 0.00
7:53 am 07:53 Sunny 44 6.7 36 2.2 73 73 NW 8 13 30.17 1022 10 16 0.00 0.00
8:53 am 08:53 Sunny 48 8.9 37 2.8 66 66 NW 9 15 30.18 1022 10 16 0.00 0.00
9:53 am 09:53 Sunny 52 11.1 37 2.8 57 57 N 10 17 30.20 1023 10 16 0.00 0.00
10:53 am 10:53 Sunny 55 12.8 36 2.2 49 49 NW 8 13 30.20 1023 10 16 0.00 0.00
11:53 am 11:53 Sunny 57 13.9 35 1.7 44 44 VRB 7 11 30.19 1022 10 16 0.00 0.00
12:53 pm 12:53 Sunny 60 15.6 34 1.1 38 38 VRB 3 6 30.17 1022 10 16 0.00 0.00
1:53 pm 13:53 Sunny 60 15.6 36 2.2 41 41 VRB 5 7 30.16 1021 10 16 0.00 0.00
2:53 pm 14:53 Sunny 61 16.1 36 2.2 39 39 NNW 7 11 30.15 1021 10 16 0.00 0.00
3:53 pm 15:53 Sunny 63 17.2 36 2.2 37 37 NNW 5 7 30.16 1021 10 16 0.00 0.00
4:53 pm 16:53 Sunny 59 15 37 2.8 44 44 WNW 8 13 30.17 1022 10 16 0.00 0.00
5:53 pm 17:53 Clear 54 12.2 36 2.2 51 51 WNW 5 7 30.20 1023 10 16 0.00 0.00
6:53 pm 18:53 Clear 49 9.4 37 2.8 64 64 Calm 30.22 1023 10 16 0.00 0.00
7:53 pm 19:53 Clear 47 8.3 37 2.8 69 69 Calm 30.23 1024 10 16 0.00 0.00
8:53 pm 20:53 Clear 44 6.7 37 2.8 76 76 Calm 30.25 1025 10 16 0.00 0.00
9:53 pm 21:53 Clear 42 5.6 38 3.3 85 85 Calm 30.24 1024 10 16 0.00 0.00
10:53 pm 22:53 Clear 44 6.7 39 3.9 83 83 Calm 30.23 1024 10 16 0.00 0.00
11:53 pm 23:53 Clear 43 6.1 39 3.9 86 86 Calm 30.24 1024 10 16 0.00 0.00

Powered by AerisWeather